| time (UTC) | temp C | wind direction | speed KPH | gust KPH | rain 1hr cm | rain 24hr cm | rain mn cm | humidity % | barometer mb |
| 20260903162826 | 15 | 133 | 3.2 | 12.9 | 0.18 | 2.11 | 1.24 | 90 | 1004.4 |
| 20260903162329 | 15 | 140 | 6.4 | 12.9 | 0.18 | 2.11 | 1.24 | 90 | 1004.4 |
| 20260903161825 | 15 | 222 | 8.0 | 27.4 | 0.18 | 2.11 | 1.24 | 90 | 1004.4 |
| 20260903161326 | 15 | 204 | 4.8 | 27.4 | 0.18 | 2.11 | 1.24 | 90 | 1004.6 |
| 20260903160827 | 15 | 190 | 6.4 | 27.4 | 0.18 | 2.11 | 1.24 | 90 | 1004.6 |
| 20260903160325 | 15 | 166 | 8.0 | 20.9 | 0.18 | 2.11 | 1.24 | 90 | 1004.6 |
| 20260903155826 | 15 | 96 | 3.2 | 17.7 | 0.18 | 2.08 | 1.24 | 90 | 1004.5 |
| 20260903155325 | 15 | 156 | 6.4 | 16.1 | 0.18 | 2.08 | 1.24 | 90 | 1004.4 |
| 20260903154825 | 14 | 166 | 4.8 | 20.9 | 0.18 | 2.08 | 1.24 | 90 | 1004.4 |
| 20260903154326 | 14 | 155 | 6.4 | 20.9 | 0.18 | 2.08 | 1.24 | 90 | 1004.4 |
| 20260903153825 | 14 | 172 | 8.0 | 20.9 | 0.25 | 2.08 | 1.24 | 90 | 1004.4 |
| 20260903153325 | 14 | 135 | 12.9 | 17.7 | 0.25 | 2.08 | 1.24 | 90 | 1004.4 |
| 20260903152826 | 14 | 165 | 9.7 | 14.5 | 0.13 | 2.08 | 1.19 | 90 | 1004.5 |
| 20260903152325 | 14 | 110 | 4.8 | 11.3 | 0.13 | 2.08 | 1.07 | 90 | 1004.4 |
| 20260903151825 | 14 | 212 | 6.4 | 16.1 | 0.18 | 2.08 | 1.07 | 90 | 1004.4 |
| 20260903151326 | 14 | 156 | 8.0 | 16.1 | 0.18 | 2.08 | 1.07 | 90 | 1004.5 |
| 20260903150825 | 14 | 84 | 6.4 | 16.1 | 0.23 | 2.08 | 1.07 | 90 | 1004.4 |
| 20260903150325 | 13 | 84 | 6.4 | 14.5 | 0.23 | 2.08 | 1.07 | 90 | 1004.3 |
| 20260903145826 | 13 | 85 | 4.8 | 12.9 | 0.28 | 2.03 | 1.07 | 90 | 1004.3 |
| 20260903145325 | 13 | 77 | 6.4 | 12.9 | 0.28 | 2.03 | 1.07 | 90 | 1004.2 |
| 20260903144825 | 13 | 93 | 4.8 | 9.7 | 0.36 | 2.03 | 1.07 | 90 | 1004.2 |
| 20260903144326 | 13 | 142 | 1.6 | 20.9 | 0.36 | 2.03 | 1.07 | 90 | 1004.1 |
| 20260903143825 | 13 | 219 | 4.8 | 20.9 | 0.28 | 2.03 | 1.07 | 90 | 1004.2 |
| 20260903143325 | 13 | 232 | 6.4 | 20.9 | 0.28 | 2.03 | 1.07 | 90 | 1004.5 |
| 20260903142825 | 13 | 204 | 4.8 | 22.5 | 0.25 | 2.03 | 0.97 | 90 | 1004.5 |
| 20260903142325 | 13 | 208 | 8.0 | 22.5 | 0.25 | 2.03 | 0.94 | 90 | 1004.3 |
| 20260903141825 | 13 | 228 | 4.8 | 22.5 | 0.25 | 2.03 | 0.94 | 90 | 1004.3 |
| 20260903141326 | 13 | 214 | 9.7 | 14.5 | 0.25 | 2.03 | 0.89 | 90 | 1004.4 |
| 20260903140825 | 13 | 169 | 6.4 | 25.7 | 0.23 | 2.03 | 0.86 | 90 | 1004.5 |
| 20260903135826 | 13 | 173 | 3.2 | 25.7 | 0.18 | 1.83 | 0.84 | 90 | 1004.4 |
| 20260903135325 | 13 | 212 | 8.0 | 19.3 | 0.18 | 1.83 | 0.81 | 90 | 1004.4 |
| 20260903134825 | 13 | 204 | 8.0 | 19.3 | 0.18 | 1.83 | 0.79 | 89 | 1004.4 |
| 20260903134326 | 13 | 172 | 6.4 | 19.3 | 0.18 | 1.83 | 0.74 | 89 | 1004.3 |
| 20260903133825 | 13 | 124 | 6.4 | 16.1 | 0.18 | 1.83 | 0.71 | 89 | 1004.2 |
| 20260903133325 | 13 | 70 | 4.8 | 16.1 | 0.18 | 1.83 | 0.71 | 89 | 1004.2 |
| 20260903132826 | 13 | 140 | 4.8 | 16.1 | 0.15 | 1.83 | 0.69 | 89 | 1004.1 |
| 20260903132325 | 13 | 159 | 6.4 | 27.4 | 0.15 | 1.83 | 0.69 | 89 | 1004.2 |
| 20260903131826 | 13 | 197 | 6.4 | 27.4 | 0.10 | 1.83 | 0.69 | 89 | 1004.1 |
| 20260903131326 | 13 | 172 | 9.7 | 27.4 | 0.10 | 1.83 | 0.66 | 89 | 1004.2 |
| 20260903130825 | 13 | 177 | 11.3 | 24.1 | 0.08 | 1.83 | 0.61 | 89 | 1004.3 |
| 20260903125826 | 13 | 191 | 14.5 | 33.8 | 0.08 | 1.75 | 0.61 | 89 | 1004.4 |
| 20260903125325 | 14 | 201 | 11.3 | 33.8 | 0.08 | 1.75 | 0.61 | 89 | 1004.3 |
| 20260903124825 | 14 | 190 | 6.4 | 24.1 | 0.00 | 1.75 | 0.58 | 89 | 1004.2 |
| 20260903124327 | 14 | 180 | 8.0 | 20.9 | 0.00 | 1.75 | 0.58 | 89 | 1004.4 |
| 20260903123825 | 14 | 179 | 9.7 | 20.9 | 0.00 | 1.75 | 0.53 | 89 | 1004.2 |
| 20260903123325 | 14 | 75 | 8.0 | 17.7 | 0.00 | 1.75 | 0.53 | 89 | 1004.2 |
| 20260903122326 | 14 | 168 | 8.0 | 20.9 | 0.00 | 1.75 | 0.53 | 89 | 1004.2 |
| 20260903121825 | 14 | 140 | 4.8 | 20.9 | 0.00 | 1.75 | 0.53 | 89 | 1004.3 |
| 20260903121326 | 14 | 196 | 4.8 | 20.9 | 0.00 | 1.75 | 0.53 | 89 | 1004.4 |
| 20260903120825 | 14 | 201 | 9.7 | 19.3 | 0.00 | 1.75 | 0.53 | 89 | 1004.4 |
| 20260903120325 | 14 | 161 | 9.7 | 17.7 | 0.00 | 1.75 | 0.53 | 89 | 1004.3 |
| 20260903115826 | 14 | 135 | 4.8 | 17.7 | 0.00 | 1.75 | 0.53 | 89 | 1004.4 |
| 20260903115326 | 14 | 124 | 6.4 | 22.5 | 0.00 | 1.75 | 0.53 | 89 | 1004.5 |
| 20260903114825 | 14 | 161 | 8.0 | 22.5 | 0.03 | 1.75 | 0.53 | 89 | 1004.5 |
| 20260903114326 | 14 | 130 | 11.3 | 22.5 | 0.03 | 1.75 | 0.53 | 89 | 1004.4 |
| 20260903113325 | 14 | 190 | 8.0 | 29.0 | 0.13 | 1.75 | 0.53 | 89 | 1004.7 |
| 20260903112826 | 14 | 180 | 8.0 | 29.0 | 0.18 | 1.75 | 0.53 | 89 | 1004.6 |
| 20260903112325 | 14 | 123 | 12.9 | 35.4 | 0.18 | 1.75 | 0.53 | 89 | 1004.7 |
| 20260903111825 | 14 | 175 | 8.0 | 35.4 | 0.23 | 1.75 | 0.53 | 89 | 1004.7 |
| 20260903111326 | 14 | 190 | 12.9 | 35.4 | 0.23 | 1.75 | 0.53 | 89 | 1004.8 |
| 20260903110825 | 14 | 184 | 14.5 | 29.0 | 0.33 | 1.75 | 0.53 | 89 | 1004.7 |
| 20260903110325 | 15 | 156 | 12.9 | 29.0 | 0.33 | 1.75 | 0.53 | 89 | 1004.7 |
| 20260903105826 | 14 | 184 | 9.7 | 29.0 | 0.51 | 1.42 | 0.53 | 89 | 1004.6 |
| 20260903105325 | 15 | 200 | 16.1 | 38.6 | 0.51 | 1.42 | 0.53 | 89 | 1004.7 |
| 20260903104825 | 15 | 148 | 14.5 | 38.6 | 0.48 | 1.42 | 0.53 | 89 | 1004.6 |
| 20260903104326 | 15 | 201 | 16.1 | 38.6 | 0.48 | 1.42 | 0.51 | 89 | 1004.7 |
| 20260903103829 | 15 | 205 | 11.3 | 35.4 | 0.41 | 1.42 | 0.48 | 88 | 1004.8 |
| 20260903103325 | 15 | 196 | 11.3 | 35.4 | 0.41 | 1.42 | 0.41 | 88 | 1004.7 |
| 20260903102826 | 15 | 154 | 9.7 | 35.4 | 0.36 | 1.42 | 0.41 | 88 | 1004.7 |
| 20260903102454 | 15 | 219 | 9.7 | 27.4 | 0.30 | 1.42 | 0.33 | 88 | 1004.8 |
| 20260903102325 | 15 | 246 | 17.7 | 32.2 | 0.36 | 1.42 | 0.38 | 88 | 1004.6 |
| 20260903101825 | 15 | 183 | 4.8 | 19.3 | 0.30 | 1.42 | 0.36 | 88 | 1004.7 |
| 20260903101326 | 15 | 219 | 9.7 | 27.4 | 0.30 | 1.42 | 0.33 | 88 | 1004.8 |
| 20260903100825 | 15 | 226 | 12.9 | 27.4 | 0.20 | 1.42 | 0.28 | 87 | 1004.8 |
| 20260903100325 | 15 | 135 | 6.4 | 27.4 | 0.20 | 1.42 | 0.23 | 87 | 1004.7 |
| 20260903095826 | 15 | 163 | 8.0 | 17.7 | 0.03 | 1.22 | 0.15 | 87 | 1004.6 |
| 20260903095325 | 15 | 191 | 9.7 | 19.3 | 0.03 | 1.22 | 0.03 | 87 | 1004.6 |
| 20260903094825 | 15 | 172 | 6.4 | 19.3 | 0.03 | 1.22 | 0.03 | 86 | 1004.6 |
| 20260903094326 | 15 | 196 | 11.3 | 19.3 | 0.03 | 1.22 | 0.03 | 86 | 1004.7 |
| 20260903093825 | 15 | 154 | 11.3 | 17.7 | 0.00 | 1.22 | 0.03 | 86 | 1004.8 |
| 20260903093325 | 15 | 187 | 8.0 | 17.7 | 0.00 | 1.22 | 0.00 | 86 | 1004.8 |
| 20260903092826 | 15 | 156 | 8.0 | 33.8 | 0.00 | 1.22 | 0.00 | 86 | 1004.8 |
| 20260903092325 | 15 | 217 | 4.8 | 33.8 | 0.00 | 1.22 | 0.00 | 86 | 1004.8 |
| 20260903091825 | 15 | 173 | 8.0 | 33.8 | 0.00 | 1.22 | 0.00 | 86 | 1004.8 |
| 20260903091326 | 15 | 179 | 9.7 | 29.0 | 0.00 | 1.22 | 0.00 | 86 | 1004.8 |
| 20260903090825 | 15 | 203 | 16.1 | 22.5 | 0.00 | 1.22 | 0.00 | 86 | 1004.8 |
| 20260903090326 | 15 | 147 | 11.3 | 22.5 | 0.00 | 1.22 | 0.00 | 86 | 1004.8 |
| 20260903085825 | 15 | 103 | 6.4 | 20.9 | 0.00 | 1.22 | 0.00 | 86 | 1004.8 |
| 20260903085325 | 15 | 200 | 11.3 | 20.9 | 0.00 | 1.22 | 0.00 | 86 | 1004.7 |
| 20260903084825 | 15 | 142 | 6.4 | 22.5 | 0.00 | 1.22 | 0.00 | 86 | 1004.7 |
| 20260903084326 | 15 | 196 | 4.8 | 22.5 | 0.00 | 1.22 | 0.00 | 86 | 1004.7 |
| 20260903083825 | 15 | 112 | 11.3 | 22.5 | 0.00 | 1.22 | 0.00 | 86 | 1004.6 |
| 20260903083325 | 15 | 179 | 11.3 | 16.1 | 0.00 | 1.22 | 0.00 | 87 | 1004.6 |
| 20260903082826 | 15 | 120 | 4.8 | 16.1 | 0.00 | 1.22 | 0.00 | 87 | 1004.6 |
| 20260903082325 | 15 | 172 | 8.0 | 22.5 | 0.00 | 1.22 | 0.00 | 87 | 1004.6 |
| 20260903081825 | 15 | 238 | 8.0 | 22.5 | 0.00 | 1.22 | 0.00 | 87 | 1004.7 |
| 20260903081326 | 15 | 184 | 6.4 | 22.5 | 0.00 | 1.22 | 0.00 | 87 | 1004.9 |
| 20260903080825 | 15 | 193 | 8.0 | 19.3 | 0.00 | 1.22 | 0.00 | 87 | 1004.9 |
| 20260903075826 | 15 | 156 | 6.4 | 19.3 | 0.00 | 1.22 | 0.00 | 87 | 1005.0 |
| 20260903075357 | 15 | 184 | 4.8 | 24.1 | 0.00 | 1.22 | 0.00 | 87 | 1005.0 |
| 20260903075326 | 15 | 184 | 4.8 | 24.1 | 0.00 | 1.22 | 0.00 | 87 | 1005.0 |
| 20260903074825 | 15 | 149 | 6.4 | 24.1 | 0.00 | 1.22 | 0.00 | 87 | 1005.0 |
| 20260903074326 | 15 | 166 | 6.4 | 24.1 | 0.00 | 1.22 | 0.00 | 87 | 1004.9 |
| 20260903073825 | 15 | 170 | 8.0 | 14.5 | 0.00 | 1.22 | 0.00 | 87 | 1004.9 |
| 20260903073325 | 15 | 103 | 8.0 | 14.5 | 0.00 | 1.22 | 0.00 | 87 | 1005.0 |
| 20260903073138 | 15 | 238 | 4.8 | 20.9 | 0.00 | 1.22 | 0.00 | 87 | 1005.0 |
| 20260903072826 | 15 | 238 | 4.8 | 20.9 | 0.00 | 1.22 | 0.00 | 87 | 1005.0 |
| 20260903072325 | 15 | 183 | 8.0 | 20.9 | 0.00 | 1.22 | 0.00 | 87 | 1005.0 |
| 20260903071825 | 15 | 91 | 6.4 | 20.9 | 0.00 | 1.22 | 0.00 | 87 | 1005.0 |
| 20260903071326 | 15 | 91 | 8.0 | 17.7 | 0.00 | 1.22 | 0.00 | 87 | 1004.9 |
| 20260903070825 | 15 | 183 | 1.6 | 17.7 | 0.00 | 1.22 | 0.00 | 87 | 1004.9 |
| 20260903070325 | 15 | 148 | 8.0 | 17.7 | 0.00 | 1.22 | 0.00 | 87 | 1004.9 |
| 20260903065826 | 15 | 173 | 8.0 | 27.4 | 0.00 | 1.22 | 0.00 | 87 | 1004.9 |
| 20260903065325 | 15 | 151 | 6.4 | 27.4 | 0.00 | 1.22 | 1.22 | 87 | 1004.8 |
| 20260903064825 | 15 | 155 | 4.8 | 27.4 | 0.00 | 1.22 | 1.22 | 87 | 1004.9 |
| 20260903063825 | 15 | 138 | 11.3 | 25.7 | 0.00 | 1.22 | 1.22 | 87 | 1004.8 |
| 20260903063325 | 15 | 168 | 6.4 | 25.7 | 0.00 | 1.22 | 1.22 | 87 | 1004.9 |
| 20260903062826 | 15 | 140 | 11.3 | 24.1 | 0.00 | 1.22 | 1.22 | 87 | 1004.9 |
| 20260903062325 | 15 | 103 | 11.3 | 19.3 | 0.00 | 1.22 | 1.22 | 87 | 1004.9 |
| 20260903061825 | 15 | 197 | 8.0 | 25.7 | 0.00 | 1.22 | 1.22 | 87 | 1005.0 |
| 20260903061326 | 15 | 130 | 11.3 | 25.7 | 0.00 | 1.22 | 1.22 | 87 | 1005.0 |
| 20260903060825 | 15 | 173 | 8.0 | 25.7 | 0.00 | 1.22 | 1.22 | 87 | 1005.1 |
| 20260903060325 | 15 | 183 | 9.7 | 19.3 | 0.00 | 1.22 | 1.22 | 87 | 1005.1 |
| 20260903055826 | 15 | 165 | 9.7 | 19.3 | 0.00 | 1.22 | 1.22 | 87 | 1005.1 |
| 20260903055325 | 15 | 141 | 3.2 | 16.1 | 0.00 | 1.22 | 1.22 | 87 | 1005.1 |
| 20260903054825 | 15 | 168 | 9.7 | 22.5 | 0.00 | 1.22 | 1.22 | 87 | 1005.1 |
| 20260903054326 | 15 | 194 | 11.3 | 22.5 | 0.00 | 1.22 | 1.22 | 87 | 1005.2 |
| 20260903053825 | 15 | 154 | 8.0 | 22.5 | 0.00 | 1.22 | 1.22 | 87 | 1005.3 |
| 20260903052826 | 15 | 126 | 4.8 | 27.4 | 0.00 | 1.22 | 1.22 | 87 | 1005.2 |
| 20260903052325 | 15 | 175 | 11.3 | 27.4 | 0.00 | 1.22 | 1.22 | 87 | 1005.2 |
| 20260903051825 | 15 | 176 | 3.2 | 27.4 | 0.00 | 1.22 | 1.22 | 87 | 1005.2 |
| 20260903051326 | 15 | 235 | 11.3 | 17.7 | 0.00 | 1.22 | 1.22 | 87 | 1005.1 |
| 20260903050825 | 15 | 204 | 8.0 | 19.3 | 0.00 | 1.22 | 1.22 | 87 | 1005.1 |
| 20260903050325 | 15 | 172 | 9.7 | 19.3 | 0.00 | 1.22 | 1.22 | 87 | 1005.1 |
| 20260903045826 | 15 | 168 | 6.4 | 19.3 | 0.00 | 1.22 | 1.22 | 87 | 1005.0 |
| 20260903045325 | 15 | 159 | 8.0 | 20.9 | 0.00 | 1.22 | 1.22 | 87 | 1005.0 |
| 20260903044825 | 15 | 127 | 9.7 | 20.9 | 0.00 | 1.22 | 1.22 | 87 | 1005.0 |
| 20260903044326 | 15 | 172 | 9.7 | 20.9 | 0.00 | 1.22 | 1.22 | 87 | 1005.1 |
| 20260903043825 | 15 | 148 | 6.4 | 17.7 | 0.00 | 1.22 | 1.22 | 87 | 1005.1 |
| 20260903042826 | 15 | 135 | 4.8 | 25.7 | 0.00 | 1.22 | 1.22 | 87 | 1005.0 |
| 20260903042325 | 15 | 197 | 8.0 | 25.7 | 0.00 | 1.22 | 1.22 | 87 | 1005.0 |
| 20260903041825 | 15 | 187 | 4.8 | 25.7 | 0.00 | 1.22 | 1.22 | 87 | 1005.0 |
| 20260903041327 | 15 | 190 | 14.5 | 17.7 | 0.00 | 1.22 | 1.22 | 87 | 1005.0 |
| 20260903040825 | 15 | 177 | 4.8 | 17.7 | 0.00 | 1.22 | 1.22 | 87 | 1005.0 |
| 20260903040325 | 15 | 158 | 6.4 | 16.1 | 0.00 | 1.22 | 1.22 | 87 | 1005.0 |
| 20260903035826 | 15 | 190 | 6.4 | 27.4 | 0.00 | 1.22 | 1.22 | 87 | 1004.9 |
| 20260903035325 | 15 | 140 | 8.0 | 27.4 | 0.00 | 1.22 | 1.22 | 87 | 1004.9 |
| 20260903034825 | 15 | 177 | 6.4 | 27.4 | 0.00 | 1.22 | 1.22 | 87 | 1004.7 |
| 20260903034326 | 15 | 183 | 14.5 | 22.5 | 0.00 | 1.22 | 1.22 | 87 | 1004.7 |
| 20260903033825 | 15 | 154 | 8.0 | 20.9 | 0.00 | 1.22 | 1.22 | 86 | 1004.7 |
| 20260903033325 | 15 | 105 | 4.8 | 19.3 | 0.00 | 1.22 | 1.22 | 86 | 1004.7 |
| 20260903032826 | 15 | 211 | 12.9 | 17.7 | 0.00 | 1.22 | 1.22 | 86 | 1004.6 |
| 20260903032325 | 15 | 193 | 4.8 | 24.1 | 0.00 | 1.22 | 1.22 | 87 | 1004.6 |
| 20260903031825 | 15 | 194 | 9.7 | 24.1 | 0.00 | 1.22 | 1.22 | 86 | 1004.6 |
| 20260903031326 | 15 | 190 | 8.0 | 24.1 | 0.00 | 1.22 | 1.22 | 86 | 1004.6 |
| 20260903030825 | 15 | 173 | 12.9 | 20.9 | 0.00 | 1.22 | 1.22 | 86 | 1004.6 |
| 20260903030325 | 15 | 179 | 6.4 | 20.9 | 0.00 | 1.22 | 1.22 | 86 | 1004.5 |
| 20260903025826 | 15 | 201 | 8.0 | 20.9 | 0.00 | 1.22 | 1.22 | 86 | 1004.5 |
| 20260903025325 | 15 | 186 | 6.4 | 22.5 | 0.00 | 1.22 | 1.22 | 86 | 1004.6 |
| 20260903024826 | 15 | 207 | 9.7 | 22.5 | 0.00 | 1.22 | 1.22 | 86 | 1004.5 |
| 20260903024326 | 15 | 196 | 9.7 | 22.5 | 0.00 | 1.22 | 1.22 | 86 | 1004.5 |
| 20260903023825 | 15 | 154 | 9.7 | 17.7 | 0.00 | 1.22 | 1.22 | 86 | 1004.4 |
| 20260903023325 | 15 | 204 | 11.3 | 24.1 | 0.00 | 1.22 | 1.22 | 86 | 1004.5 |
| 20260903022826 | 15 | 177 | 6.4 | 24.1 | 0.00 | 1.22 | 1.22 | 86 | 1004.5 |
| 20260903022325 | 15 | 205 | 11.3 | 24.1 | 0.00 | 1.22 | 1.22 | 85 | 1004.6 |
| 20260903021825 | 15 | 205 | 9.7 | 27.4 | 0.00 | 1.22 | 1.22 | 85 | 1004.5 |
| 20260903021326 | 15 | 184 | 4.8 | 27.4 | 0.00 | 1.22 | 1.22 | 85 | 1004.5 |
| 20260903020825 | 15 | 173 | 11.3 | 27.4 | 0.00 | 1.22 | 1.22 | 85 | 1004.5 |
| 20260903020325 | 15 | 179 | 11.3 | 27.4 | 0.00 | 1.22 | 1.22 | 85 | 1004.5 |
| 20260903015826 | 16 | 182 | 8.0 | 27.4 | 0.00 | 1.22 | 1.22 | 84 | 1004.5 |
| 20260903015325 | 16 | 196 | 6.4 | 27.4 | 0.00 | 1.22 | 1.22 | 84 | 1004.4 |
| 20260903014825 | 16 | 194 | 14.5 | 22.5 | 0.00 | 1.22 | 1.22 | 84 | 1004.3 |
| 20260903014326 | 16 | 205 | 9.7 | 32.2 | 0.00 | 1.22 | 1.22 | 84 | 1004.4 |
| 20260903013825 | 16 | 200 | 16.1 | 32.2 | 0.00 | 1.22 | 1.22 | 84 | 1004.3 |
| 20260903013326 | 16 | 198 | 14.5 | 32.2 | 0.00 | 1.22 | 1.22 | 84 | 1004.4 |
| 20260903012826 | 16 | 207 | 14.5 | 30.6 | 0.00 | 1.22 | 1.22 | 84 | 1004.4 |
| 20260903012325 | 16 | 184 | 17.7 | 27.4 | 0.00 | 1.22 | 1.22 | 83 | 1004.4 |
| 20260903011828 | 16 | 179 | 16.1 | 29.0 | 0.00 | 1.22 | 0.00 | 84 | 1004.3 |
| 20260903011825 | 16 | 179 | 16.1 | 29.0 | 0.00 | 1.22 | 1.22 | 84 | 1004.3 |
| 20260903011326 | 16 | 212 | 11.3 | 29.0 | 0.00 | 1.22 | 1.22 | 84 | 1004.4 |
| 20260903010826 | 16 | 203 | 16.1 | 29.0 | 0.00 | 1.22 | 1.22 | 84 | 1004.3 |
| 20260903010325 | 16 | 256 | 19.3 | 24.1 | 0.00 | 1.22 | 1.22 | 84 | 1004.3 |
| 20260903005826 | 16 | 175 | 12.9 | 32.2 | 0.00 | 1.22 | 1.22 | 84 | 1004.2 |
| 20260903005325 | 16 | 179 | 8.0 | 32.2 | 0.00 | 1.22 | 1.22 | 84 | 1004.3 |
| 20260903004826 | 16 | 210 | 11.3 | 32.2 | 0.00 | 1.22 | 1.22 | 84 | 1004.2 |
| 20260903004326 | 16 | 149 | 14.5 | 33.8 | 0.00 | 1.22 | 1.22 | 84 | 1004.1 |
| 20260903003826 | 16 | 198 | 12.9 | 33.8 | 0.00 | 1.22 | 1.22 | 84 | 1004.2 |
| 20260903003325 | 16 | 180 | 17.7 | 33.8 | 0.00 | 1.22 | 1.22 | 84 | 1004.2 |
| 20260903002825 | 16 | 218 | 11.3 | 25.7 | 0.00 | 1.22 | 1.22 | 85 | 1004.1 |
| 20260903002325 | 16 | 198 | 11.3 | 32.2 | 0.00 | 1.22 | 1.22 | 84 | 1004.1 |
| 20260903001826 | 16 | 201 | 17.7 | 32.2 | 0.00 | 1.22 | 1.22 | 84 | 1004.0 |
| 20260903001326 | 16 | 175 | 17.7 | 32.2 | 0.00 | 1.22 | 1.22 | 84 | 1004.0 |
| 20260903000826 | 16 | 196 | 14.5 | 27.4 | 0.00 | 1.22 | 1.22 | 85 | 1004.0 |
| 20260903000325 | 16 | 176 | 12.9 | 22.5 | 0.00 | 1.22 | 1.22 | 86 | 1003.8 |
| 20260902235826 | 16 | 196 | 11.3 | 22.5 | 0.00 | 1.22 | 1.22 | 86 | 1003.8 |
| 20260902235325 | 16 | 189 | 6.4 | 22.5 | 0.00 | 1.22 | 1.22 | 86 | 1003.7 |
| 20260902234826 | 16 | 190 | 16.1 | 20.9 | 0.00 | 1.22 | 1.22 | 85 | 1003.6 |
| 20260902234326 | 17 | 200 | 9.7 | 20.9 | 0.00 | 1.22 | 1.22 | 86 | 1003.6 |
| 20260902233826 | 17 | 190 | 8.0 | 20.9 | 0.00 | 1.22 | 1.22 | 87 | 1003.5 |
| 20260902233325 | 17 | 196 | 11.3 | 20.9 | 0.00 | 1.22 | 1.22 | 87 | 1003.4 |
| 20260902232826 | 17 | 200 | 11.3 | 20.9 | 0.00 | 1.22 | 1.22 | 87 | 1003.4 |
| 20260902232325 | 16 | 186 | 14.5 | 25.7 | 0.00 | 1.22 | 1.22 | 87 | 1003.4 |
| 20260902231826 | 17 | 186 | 6.4 | 25.7 | 0.00 | 1.22 | 1.22 | 88 | 1003.3 |
| 20260902231326 | 17 | 180 | 12.9 | 25.7 | 0.00 | 1.22 | 1.22 | 87 | 1003.3 |
| 20260902230826 | 17 | 194 | 17.7 | 24.1 | 0.00 | 1.22 | 1.22 | 88 | 1003.2 |
| 20260902225826 | 17 | 222 | 12.9 | 17.7 | 0.00 | 1.22 | 1.22 | 89 | 1003.1 |
| 20260902225325 | 17 | 196 | 6.4 | 22.5 | 0.00 | 1.22 | 1.22 | 89 | 1003.1 |
| 20260902224826 | 17 | 229 | 14.5 | 22.5 | 0.00 | 1.22 | 1.22 | 89 | 1003.1 |
| 20260902224326 | 17 | 182 | 9.7 | 22.5 | 0.00 | 1.22 | 1.22 | 89 | 1003.0 |
| 20260902223325 | 17 | 186 | 11.3 | 22.5 | 0.03 | 1.22 | 1.22 | 89 | 1002.8 |
| 20260902222826 | 17 | 256 | 12.9 | 22.5 | 0.03 | 1.22 | 1.22 | 89 | 1002.8 |
| 20260902222325 | 16 | 196 | 9.7 | 17.7 | 0.03 | 1.22 | 1.22 | 90 | 1002.8 |
| 20260902221826 | 16 | 187 | 4.8 | 20.9 | 0.03 | 1.22 | 1.22 | 90 | 1002.8 |
| 20260902221326 | 16 | 196 | 8.0 | 20.9 | 0.03 | 1.22 | 1.22 | 90 | 1002.7 |
| 20260902220325 | 16 | 205 | 8.0 | 20.9 | 0.03 | 1.22 | 1.22 | 90 | 1002.6 |
| 20260902215826 | 15 | 191 | 6.4 | 20.9 | 0.03 | 1.22 | 1.22 | 90 | 1002.6 |
| 20260902215325 | 15 | 201 | 11.3 | 20.9 | 0.03 | 1.22 | 1.22 | 90 | 1002.6 |
| 20260902214825 | 15 | 190 | 3.2 | 20.9 | 0.03 | 1.22 | 1.22 | 90 | 1002.7 |
| 20260902214326 | 15 | 184 | 8.0 | 20.9 | 0.03 | 1.22 | 1.22 | 90 | 1002.7 |
| 20260902213826 | 15 | 201 | 9.7 | 20.9 | 0.00 | 1.19 | 1.22 | 90 | 1002.6 |
| 20260902213325 | 15 | 211 | 8.0 | 20.9 | 0.00 | 1.19 | 1.19 | 90 | 1002.5 |
| 20260902212825 | 15 | 191 | 4.8 | 24.1 | 0.00 | 1.19 | 1.19 | 90 | 1002.4 |
| 20260902212325 | 15 | 203 | 8.0 | 24.1 | 0.00 | 1.19 | 1.19 | 90 | 1002.3 |
| 20260902211825 | 15 | 212 | 6.4 | 24.1 | 0.00 | 1.19 | 1.19 | 90 | 1002.2 |
| 20260902211326 | 15 | 193 | 6.4 | 22.5 | 0.00 | 1.19 | 1.19 | 90 | 1002.2 |
| 20260902210825 | 15 | 242 | 12.9 | 27.4 | 0.03 | 1.19 | 1.19 | 90 | 1002.2 |
| 20260902210326 | 15 | 186 | 3.2 | 27.4 | 0.03 | 1.19 | 1.19 | 90 | 1002.2 |
| 20260902205827 | 15 | 214 | 9.7 | 27.4 | 0.03 | 1.19 | 1.19 | 90 | 1002.3 |
| 20260902205325 | 15 | 194 | 12.9 | 17.7 | 0.03 | 1.19 | 1.19 | 90 | 1002.2 |
| 20260902204825 | 15 | 159 | 11.3 | 29.0 | 0.03 | 1.19 | 1.19 | 90 | 1002.1 |
| 20260902204326 | 15 | 212 | 14.5 | 29.0 | 0.03 | 1.19 | 1.19 | 90 | 1002.1 |
| 20260902203825 | 15 | 176 | 12.9 | 29.0 | 0.05 | 1.19 | 1.19 | 90 | 1002.0 |
| 20260902203325 | 15 | 191 | 9.7 | 25.7 | 0.05 | 1.19 | 1.19 | 90 | 1002.0 |
| 20260902202826 | 15 | 189 | 11.3 | 25.7 | 0.08 | 1.19 | 1.19 | 90 | 1002.0 |
| 20260902202325 | 15 | 137 | 14.5 | 24.1 | 0.08 | 1.19 | 1.19 | 90 | 1001.7 |
| 20260902201825 | 15 | 201 | 12.9 | 45.1 | 0.08 | 1.19 | 1.19 | 90 | 1001.8 |
| 20260902201326 | 15 | 203 | 16.1 | 45.1 | 0.08 | 1.19 | 1.19 | 90 | 1001.7 |
| 20260902200825 | 15 | 190 | 16.1 | 45.1 | 0.10 | 1.19 | 1.19 | 90 | 1001.6 |
| 20260902200325 | 15 | 233 | 27.4 | 43.5 | 0.10 | 1.19 | 1.19 | 90 | 1001.5 |
| 20260902195827 | 15 | 172 | 22.5 | 48.3 | 0.18 | 1.17 | 1.17 | 90 | 1001.7 |
| 20260902195325 | 15 | 179 | 22.5 | 48.3 | 0.18 | 1.17 | 1.17 | 90 | 1001.6 |
| 20260902194859 | 15 | 193 | 17.7 | 48.3 | 0.28 | 1.17 | 1.17 | 90 | 1001.7 |
| 20260902194825 | 15 | 193 | 17.7 | 48.3 | 0.28 | 1.17 | 1.17 | 90 | 1001.7 |
| 20260902194326 | 15 | 187 | 22.5 | 56.3 | 0.28 | 1.17 | 1.17 | 90 | 1001.7 |
| 20260902193825 | 15 | 191 | 12.9 | 56.3 | 0.33 | 1.17 | 1.17 | 90 | 1001.6 |
| 20260902193325 | 15 | 218 | 19.3 | 56.3 | 0.33 | 1.14 | 1.14 | 89 | 1001.7 |
| 20260902192827 | 15 | 198 | 20.9 | 51.5 | 0.36 | 1.14 | 1.14 | 89 | 1001.6 |
| 20260902192325 | 15 | 149 | 14.5 | 33.8 | 0.36 | 1.14 | 1.14 | 89 | 1001.7 |
| 20260902191826 | 15 | 173 | 11.3 | 25.7 | 0.41 | 1.12 | 1.12 | 89 | 1001.4 |
| 20260902191326 | 15 | 168 | 14.5 | 17.7 | 0.41 | 1.12 | 1.12 | 89 | 1001.4 |
| 20260902190825 | 15 | 190 | 8.0 | 14.5 | 0.36 | 1.09 | 1.12 | 89 | 1001.3 |
| 20260902190325 | 15 | 207 | 8.0 | 22.5 | 0.36 | 1.09 | 1.09 | 89 | 1001.2 |
| 20260902185827 | 15 | 175 | 8.0 | 22.5 | 0.28 | 1.04 | 1.04 | 89 | 1001.1 |
| 20260902185325 | 15 | 201 | 11.3 | 22.5 | 0.28 | 1.02 | 1.02 | 89 | 1001.0 |
| 20260902184825 | 15 | 155 | 8.0 | 29.0 | 0.18 | 0.94 | 0.97 | 89 | 1001.0 |
| 20260902184326 | 15 | 154 | 9.7 | 29.0 | 0.18 | 0.91 | 0.91 | 89 | 1000.9 |
| 20260902183825 | 15 | 170 | 6.4 | 29.0 | 0.13 | 0.86 | 0.86 | 89 | 1000.7 |
| 20260902183325 | 15 | 177 | 11.3 | 25.7 | 0.13 | 0.81 | 0.84 | 89 | 1000.6 |
| 20260902182827 | 15 | 109 | 9.7 | 25.7 | 0.10 | 0.79 | 0.79 | 89 | 1000.7 |
| 20260902182325 | 15 | 191 | 9.7 | 16.1 | 0.10 | 0.76 | 0.76 | 89 | 1000.7 |
| 20260902181825 | 15 | 144 | 6.4 | 25.7 | 0.08 | 0.74 | 0.74 | 89 | 1000.6 |
| 20260902181326 | 15 | 137 | 8.0 | 25.7 | 0.08 | 0.71 | 0.71 | 89 | 1000.6 |
| 20260902180825 | 15 | 180 | 4.8 | 25.7 | 0.15 | 0.71 | 0.71 | 89 | 1000.5 |
| 20260902180325 | 15 | 147 | 6.4 | 22.5 | 0.15 | 0.71 | 0.71 | 89 | 1000.4 |
| 20260902175827 | 15 | 196 | 9.7 | 20.9 | 0.18 | 0.71 | 0.71 | 89 | 1000.3 |
| 20260902175325 | 15 | 173 | 9.7 | 20.9 | 0.18 | 0.71 | 0.71 | 89 | 1000.3 |
| 20260902174825 | 15 | 68 | 6.4 | 20.9 | 0.25 | 0.71 | 0.71 | 89 | 1000.2 |
| 20260902174326 | 15 | 156 | 6.4 | 24.1 | 0.25 | 0.71 | 0.71 | 89 | 1000.2 |
| 20260902173825 | 15 | 161 | 4.8 | 24.1 | 0.25 | 0.71 | 0.71 | 89 | 1000.2 |
| 20260902173325 | 15 | 173 | 3.2 | 24.1 | 0.25 | 0.71 | 0.71 | 89 | 1000.3 |
| 20260902172827 | 15 | 172 | 3.2 | 20.9 | 0.28 | 0.69 | 0.69 | 88 | 1000.2 |
| 20260902172325 | 15 | 86 | 8.0 | 17.7 | 0.28 | 0.66 | 0.66 | 88 | 1000.2 |
| 20260902171825 | 15 | 183 | 4.8 | 25.7 | 0.28 | 0.66 | 0.66 | 88 | 1000.1 |
| 20260902171326 | 15 | 169 | 9.7 | 25.7 | 0.28 | 0.64 | 0.64 | 88 | 1000.1 |
| 20260902170825 | 15 | 191 | 4.8 | 25.7 | 0.20 | 0.61 | 0.64 | 88 | 1000.2 |
| 20260902170325 | 15 | 109 | 8.0 | 30.6 | 0.20 | 0.58 | 0.58 | 88 | 1000.3 |
| 20260902165826 | 15 | 64 | 8.0 | 30.6 | 0.20 | 0.56 | 0.56 | 88 | 1000.4 |
| 20260902165325 | 15 | 121 | 8.0 | 30.6 | 0.20 | 0.53 | 0.53 | 88 | 1000.4 |
| 20260902164825 | 15 | 189 | 9.7 | 12.9 | 0.13 | 0.51 | 0.51 | 88 | 1000.6 |
| 20260902164326 | 15 | 84 | 4.8 | 11.3 | 0.13 | 0.48 | 0.48 | 88 | 1000.7 |
| 20260902163825 | 15 | 75 | 4.8 | 14.5 | 0.13 | 0.46 | 0.46 | 88 | 1000.8 |
| 20260902163327 | 15 | 96 | 4.8 | 14.5 | 0.13 | 0.43 | 0.46 | 88 | 1000.9 |